TimePDT,TemperatureF,Dew PointF,Humidity,Sea Level PressureIn,VisibilityMPH,Wind Direction,Wind SpeedMPH,Gust SpeedMPH,PrecipitationIn,Events,Conditions,WindDirDegrees,DateUTC
12:52 AM,45.0,41.0,86,29.82,-9999.0,SW,13.8,-,N/A,,Unknown,230,2013-04-16 07:52:00
1:52 AM,44.1,39.9,85,29.81,-9999.0,SW,13.8,-,N/A,,Unknown,230,2013-04-16 08:52:00
2:52 AM,43.0,37.9,82,29.81,-9999.0,WSW,15.0,-,N/A,,Unknown,240,2013-04-16 09:52:00
3:52 AM,43.0,37.0,80,29.80,-9999.0,SW,17.3,-,N/A,,Unknown,230,2013-04-16 10:52:00
4:52 AM,42.1,36.0,79,29.79,-9999.0,SW,16.1,-,N/A,,Unknown,230,2013-04-16 11:52:00
5:52 AM,42.1,35.1,76,29.80,-9999.0,WSW,15.0,19.6,N/A,,Unknown,240,2013-04-16 12:52:00
6:52 AM,42.1,35.1,76,29.83,-9999.0,SW,11.5,19.6,N/A,,Unknown,230,2013-04-16 13:52:00
7:52 AM,42.1,35.1,76,29.84,-9999.0,SW,15.0,18.4,N/A,,Unknown,230,2013-04-16 14:52:00
8:52 AM,44.1,34.0,68,29.84,-9999.0,SW,19.6,-,N/A,,Unknown,220,2013-04-16 15:52:00
9:52 AM,46.0,33.1,61,29.86,-9999.0,WSW,16.1,24.2,N/A,,Unknown,250,2013-04-16 16:52:00
10:52 AM,48.0,33.1,56,29.86,-9999.0,SW,15.0,24.2,N/A,,Unknown,230,2013-04-16 17:52:00
11:52 AM,50.0,32.0,50,29.85,-9999.0,SW,16.1,28.8,N/A,,Unknown,230,2013-04-16 18:52:00
12:52 PM,52.0,34.0,50,29.84,-9999.0,WSW,15.0,26.5,N/A,,Unknown,240,2013-04-16 19:52:00
1:52 PM,53.1,32.0,45,29.84,-9999.0,WSW,17.3,27.6,N/A,,Unknown,240,2013-04-16 20:52:00
2:52 PM,53.1,30.0,41,29.83,-9999.0,WSW,19.6,26.5,N/A,,Unknown,250,2013-04-16 21:52:00
3:52 PM,53.1,32.0,45,29.82,-9999.0,SW,18.4,24.2,N/A,,Unknown,230,2013-04-16 22:52:00
4:52 PM,51.1,33.1,50,29.83,-9999.0,West,12.7,20.7,N/A,,Unknown,260,2013-04-16 23:52:00
5:52 PM,48.9,33.1,54,29.83,-9999.0,WSW,13.8,18.4,N/A,,Unknown,240,2013-04-17 00:52:00
6:52 PM,46.9,34.0,61,29.85,-9999.0,West,10.4,-,N/A,,Unknown,270,2013-04-17 01:52:00
7:52 PM,46.9,36.0,66,29.86,-9999.0,WSW,11.5,-,N/A,,Unknown,250,2013-04-17 02:52:00
8:52 PM,46.0,37.0,71,29.88,-9999.0,WSW,10.4,-,N/A,,Unknown,250,2013-04-17 03:52:00
9:52 PM,46.0,37.0,71,29.91,-9999.0,West,9.2,17.3,N/A,,Unknown,280,2013-04-17 04:52:00
10:52 PM,41.0,37.0,86,29.92,-9999.0,SW,8.1,-,N/A,,Unknown,220,2013-04-17 05:52:00
11:52 PM,37.9,34.0,86,29.94,-9999.0,Calm,Calm,-,N/A,,Unknown,0,2013-04-17 06:52:00